Regional Weather Roundup
Issued by NWS Charleston, WV

Home | Current Version | Previous Version | Graphics & Text | Print | Product List | Glossary On
Versions: 1 2 3 4 5 6 7 8 9 10 11 12 13 14 15 16 17 18 19 20 21 22 23 24 25 26 27 28 29 30 31 32 33 34 35 36 37 38 39 40 41 42 43 44 45 46 47 48 49 50
000
ASUS41 KRLX 090010
RWRRLX
West Virginia Regional Weather Roundup
National Weather Service Charleston WV
Issued by National Weather Service Pittsburgh PA
700 PM EST THU DEC 08 2016

Note: "fair" indicates few or no clouds below 12,000 feet with no
significant weather and/or obstructions to visibility.

WVZ003-090100-
Northern Panhandle of West Virginia

CITY           SKY/WX    TMP DP  RH WIND       PRES   REMARKS
WHEELING       CLOUDY    24  12  60 W15G23    30.23R WCI  11
$$

WVZ009-090100-
Northwest West Virginia

CITY           SKY/WX    TMP DP  RH WIND       PRES   REMARKS
PARKERSBURG    CLEAR     26  14  60 NW12      30.32R WCI  16
$$

WVZ006-090100-
Western West Virginia

CITY           SKY/WX    TMP DP  RH WIND       PRES   REMARKS
HUNTINGTON     MOCLDY    31  13  47 W3        30.32R
$$

WVZ015-090100-
West Central West Virginia

CITY           SKY/WX    TMP DP  RH WIND       PRES   REMARKS
CHARLESTON     PTCLDY    32  14  47 W8        30.28R WCI  25
$$

WVZ031-090100-
North Central West Virginia

CITY           SKY/WX    TMP DP  RH WIND       PRES   REMARKS
CLARKSBURG     CLOUDY    29  17  61 NW18      30.22R WCI  16
MORGANTOWN     CLOUDY    27  14  58 W10G18    30.22R WCI  17
$$

WVZ035-042-090100-
South Central West Virginia

CITY           SKY/WX    TMP DP  RH WIND       PRES   REMARKS
BECKLEY        CLEAR     27  10  49 NW16G22   30.19R WCI  15
BLUEFIELD      CLEAR     26  10  50 NW9G18    30.17R WCI  17
$$

WVZ045-090100-
Greenbrier Valley of West Virginia

CITY           SKY/WX    TMP DP  RH WIND       PRES   REMARKS
LEWISBURG      PTCLDY    28  12  50 NW10G17   30.16R WCI  19
$$

WVZ047-090100-
Northern Mountains of West Virginia

CITY           SKY/WX    TMP DP  RH WIND       PRES   REMARKS
ELKINS         MOCLDY    28  14  55 W8G18     30.16R WCI  20
$$

WVZ052-090100-
Eastern Panhandle of West Virginia

CITY           SKY/WX    TMP DP  RH WIND       PRES   REMARKS
MARTINSBURG    MOCLDY    34  15  46 NW13      30.14R WCI  25
PETERSBURG     MOCLDY    34  16  47 W15G29    30.17R WCI  25
$$



USA.gov is the U.S. government's official web portal to all federal, state and local government web resources and services.